Index of /20260427/WXO-DD/model_caps/3km/12/001
Name Last modified Size Description
Parent Directory -
20260427T12Z_MSC_CAPS_AbsoluteVorticity_IsbL-0250_RLatLon0.03_PT001H.grib2 2026-04-27 18:08 1.0M
20260427T12Z_MSC_CAPS_AbsoluteVorticity_IsbL-0500_RLatLon0.03_PT001H.grib2 2026-04-27 18:08 1.2M
20260427T12Z_MSC_CAPS_AbsoluteVorticity_IsbL-0700_RLatLon0.03_PT001H.grib2 2026-04-27 18:08 1.2M
20260427T12Z_MSC_CAPS_AbsoluteVorticity_IsbL-0850_RLatLon0.03_PT001H.grib2 2026-04-27 18:08 1.2M
20260427T12Z_MSC_CAPS_AbsoluteVorticity_IsbL-1000_RLatLon0.03_PT001H.grib2 2026-04-27 18:08 1.4M
20260427T12Z_MSC_CAPS_AirDensity_AGL-120m_RLatLon0.03_PT001H.grib2 2026-04-27 18:08 1.4M
20260427T12Z_MSC_CAPS_AirDensity_AGL-40m_RLatLon0.03_PT001H.grib2 2026-04-27 18:08 1.5M
20260427T12Z_MSC_CAPS_AirDensity_AGL-80m_RLatLon0.03_PT001H.grib2 2026-04-27 18:08 1.4M
20260427T12Z_MSC_CAPS_AirTemp_AGL-120m_RLatLon0.03_PT001H.grib2 2026-04-27 18:08 1.7M
20260427T12Z_MSC_CAPS_AirTemp_AGL-2m_RLatLon0.03_PT001H.grib2 2026-04-27 18:08 2.2M
20260427T12Z_MSC_CAPS_AirTemp_AGL-40m_RLatLon0.03_PT001H.grib2 2026-04-27 18:08 1.9M
20260427T12Z_MSC_CAPS_AirTemp_AGL-80m_RLatLon0.03_PT001H.grib2 2026-04-27 18:08 1.8M
20260427T12Z_MSC_CAPS_AirTemp_IsbL-0050_RLatLon0.03_PT001H.grib2 2026-04-27 18:08 708K
20260427T12Z_MSC_CAPS_AirTemp_IsbL-0100_RLatLon0.03_PT001H.grib2 2026-04-27 18:08 926K
20260427T12Z_MSC_CAPS_AirTemp_IsbL-0150_RLatLon0.03_PT001H.grib2 2026-04-27 18:08 716K
20260427T12Z_MSC_CAPS_AirTemp_IsbL-0175_RLatLon0.03_PT001H.grib2 2026-04-27 18:08 737K
20260427T12Z_MSC_CAPS_AirTemp_IsbL-0200_RLatLon0.03_PT001H.grib2 2026-04-27 18:08 755K
20260427T12Z_MSC_CAPS_AirTemp_IsbL-0225_RLatLon0.03_PT001H.grib2 2026-04-27 18:08 766K
20260427T12Z_MSC_CAPS_AirTemp_IsbL-0250_RLatLon0.03_PT001H.grib2 2026-04-27 18:08 765K
20260427T12Z_MSC_CAPS_AirTemp_IsbL-0275_RLatLon0.03_PT001H.grib2 2026-04-27 18:08 764K
20260427T12Z_MSC_CAPS_AirTemp_IsbL-0300_RLatLon0.03_PT001H.grib2 2026-04-27 18:08 759K
20260427T12Z_MSC_CAPS_AirTemp_IsbL-0350_RLatLon0.03_PT001H.grib2 2026-04-27 18:08 739K
20260427T12Z_MSC_CAPS_AirTemp_IsbL-0400_RLatLon0.03_PT001H.grib2 2026-04-27 18:08 742K
20260427T12Z_MSC_CAPS_AirTemp_IsbL-0450_RLatLon0.03_PT001H.grib2 2026-04-27 18:08 750K
20260427T12Z_MSC_CAPS_AirTemp_IsbL-0500_RLatLon0.03_PT001H.grib2 2026-04-27 18:08 760K
20260427T12Z_MSC_CAPS_AirTemp_IsbL-0550_RLatLon0.03_PT001H.grib2 2026-04-27 18:08 772K
20260427T12Z_MSC_CAPS_AirTemp_IsbL-0600_RLatLon0.03_PT001H.grib2 2026-04-27 18:08 789K
20260427T12Z_MSC_CAPS_AirTemp_IsbL-0650_RLatLon0.03_PT001H.grib2 2026-04-27 18:08 809K
20260427T12Z_MSC_CAPS_AirTemp_IsbL-0700_RLatLon0.03_PT001H.grib2 2026-04-27 18:08 1.0M
20260427T12Z_MSC_CAPS_AirTemp_IsbL-0750_RLatLon0.03_PT001H.grib2 2026-04-27 18:08 1.0M
20260427T12Z_MSC_CAPS_AirTemp_IsbL-0800_RLatLon0.03_PT001H.grib2 2026-04-27 18:08 1.0M
20260427T12Z_MSC_CAPS_AirTemp_IsbL-0850_RLatLon0.03_PT001H.grib2 2026-04-27 18:08 1.1M
20260427T12Z_MSC_CAPS_AirTemp_IsbL-0875_RLatLon0.03_PT001H.grib2 2026-04-27 18:08 1.1M
20260427T12Z_MSC_CAPS_AirTemp_IsbL-0900_RLatLon0.03_PT001H.grib2 2026-04-27 18:08 1.1M
20260427T12Z_MSC_CAPS_AirTemp_IsbL-0925_RLatLon0.03_PT001H.grib2 2026-04-27 18:08 1.1M
20260427T12Z_MSC_CAPS_AirTemp_IsbL-0950_RLatLon0.03_PT001H.grib2 2026-04-27 18:08 1.1M
20260427T12Z_MSC_CAPS_AirTemp_IsbL-0970_RLatLon0.03_PT001H.grib2 2026-04-27 18:08 1.2M
20260427T12Z_MSC_CAPS_AirTemp_IsbL-0985_RLatLon0.03_PT001H.grib2 2026-04-27 18:08 1.1M
20260427T12Z_MSC_CAPS_AirTemp_IsbL-1000_RLatLon0.03_PT001H.grib2 2026-04-27 18:08 1.1M
20260427T12Z_MSC_CAPS_AirTemp_IsbL-1015_RLatLon0.03_PT001H.grib2 2026-04-27 18:08 1.1M
20260427T12Z_MSC_CAPS_Albedo_Sfc_RLatLon0.03_PT001H.grib2 2026-04-27 18:08 2.7M
20260427T12Z_MSC_CAPS_CAPE_Sfc_RLatLon0.03_PT001H.grib2 2026-04-27 18:08 54K
20260427T12Z_MSC_CAPS_CloudWater_EAtm_RLatLon0.03_PT001H.grib2 2026-04-27 18:08 1.2M
20260427T12Z_MSC_CAPS_ConvectivePrecip-Accum_Sfc_RLatLon0.03_PT001H.grib2 2026-04-27 18:08 1.1M
20260427T12Z_MSC_CAPS_DewPointDepression_AGL-120m_RLatLon0.03_PT001H.grib2 2026-04-27 18:08 1.8M
20260427T12Z_MSC_CAPS_DewPointDepression_AGL-2m_RLatLon0.03_PT001H.grib2 2026-04-27 18:08 2.0M
20260427T12Z_MSC_CAPS_DewPointDepression_AGL-40m_RLatLon0.03_PT001H.grib2 2026-04-27 18:08 1.9M
20260427T12Z_MSC_CAPS_DewPointDepression_AGL-80m_RLatLon0.03_PT001H.grib2 2026-04-27 18:08 1.9M
20260427T12Z_MSC_CAPS_DewPointDepression_IsbL-0050_RLatLon0.03_PT001H.grib2 2026-04-27 18:08 7.3K
20260427T12Z_MSC_CAPS_DewPointDepression_IsbL-0100_RLatLon0.03_PT001H.grib2 2026-04-27 18:08 95K
20260427T12Z_MSC_CAPS_DewPointDepression_IsbL-0150_RLatLon0.03_PT001H.grib2 2026-04-27 18:08 96K
20260427T12Z_MSC_CAPS_DewPointDepression_IsbL-0175_RLatLon0.03_PT001H.grib2 2026-04-27 18:08 185K
20260427T12Z_MSC_CAPS_DewPointDepression_IsbL-0200_RLatLon0.03_PT001H.grib2 2026-04-27 18:08 356K
20260427T12Z_MSC_CAPS_DewPointDepression_IsbL-0225_RLatLon0.03_PT001H.grib2 2026-04-27 18:08 599K
20260427T12Z_MSC_CAPS_DewPointDepression_IsbL-0250_RLatLon0.03_PT001H.grib2 2026-04-27 18:08 773K
20260427T12Z_MSC_CAPS_DewPointDepression_IsbL-0275_RLatLon0.03_PT001H.grib2 2026-04-27 18:08 898K
20260427T12Z_MSC_CAPS_DewPointDepression_IsbL-0300_RLatLon0.03_PT001H.grib2 2026-04-27 18:08 944K
20260427T12Z_MSC_CAPS_DewPointDepression_IsbL-0350_RLatLon0.03_PT001H.grib2 2026-04-27 18:08 967K
20260427T12Z_MSC_CAPS_DewPointDepression_IsbL-0400_RLatLon0.03_PT001H.grib2 2026-04-27 18:08 1.0M
20260427T12Z_MSC_CAPS_DewPointDepression_IsbL-0450_RLatLon0.03_PT001H.grib2 2026-04-27 18:08 1.0M
20260427T12Z_MSC_CAPS_DewPointDepression_IsbL-0500_RLatLon0.03_PT001H.grib2 2026-04-27 18:08 1.0M
20260427T12Z_MSC_CAPS_DewPointDepression_IsbL-0550_RLatLon0.03_PT001H.grib2 2026-04-27 18:08 1.0M
20260427T12Z_MSC_CAPS_DewPointDepression_IsbL-0600_RLatLon0.03_PT001H.grib2 2026-04-27 18:08 1.0M
20260427T12Z_MSC_CAPS_DewPointDepression_IsbL-0650_RLatLon0.03_PT001H.grib2 2026-04-27 18:08 1.1M
20260427T12Z_MSC_CAPS_DewPointDepression_IsbL-0700_RLatLon0.03_PT001H.grib2 2026-04-27 18:08 1.1M
20260427T12Z_MSC_CAPS_DewPointDepression_IsbL-0750_RLatLon0.03_PT001H.grib2 2026-04-27 18:08 1.1M
20260427T12Z_MSC_CAPS_DewPointDepression_IsbL-0800_RLatLon0.03_PT001H.grib2 2026-04-27 18:08 1.2M
20260427T12Z_MSC_CAPS_DewPointDepression_IsbL-0850_RLatLon0.03_PT001H.grib2 2026-04-27 18:08 1.2M
20260427T12Z_MSC_CAPS_DewPointDepression_IsbL-0875_RLatLon0.03_PT001H.grib2 2026-04-27 18:08 1.2M
20260427T12Z_MSC_CAPS_DewPointDepression_IsbL-0900_RLatLon0.03_PT001H.grib2 2026-04-27 18:08 1.3M
20260427T12Z_MSC_CAPS_DewPointDepression_IsbL-0925_RLatLon0.03_PT001H.grib2 2026-04-27 18:08 1.3M
20260427T12Z_MSC_CAPS_DewPointDepression_IsbL-0950_RLatLon0.03_PT001H.grib2 2026-04-27 18:08 1.3M
20260427T12Z_MSC_CAPS_DewPointDepression_IsbL-0970_RLatLon0.03_PT001H.grib2 2026-04-27 18:08 1.3M
20260427T12Z_MSC_CAPS_DewPointDepression_IsbL-0985_RLatLon0.03_PT001H.grib2 2026-04-27 18:08 1.3M
20260427T12Z_MSC_CAPS_DewPointDepression_IsbL-1000_RLatLon0.03_PT001H.grib2 2026-04-27 18:08 1.3M
20260427T12Z_MSC_CAPS_DewPointDepression_IsbL-1015_RLatLon0.03_PT001H.grib2 2026-04-27 18:08 1.3M
20260427T12Z_MSC_CAPS_DewPoint_AGL-120m_RLatLon0.03_PT001H.grib2 2026-04-27 18:08 3.4M
20260427T12Z_MSC_CAPS_DewPoint_AGL-2m_RLatLon0.03_PT001H.grib2 2026-04-27 18:08 2.2M
20260427T12Z_MSC_CAPS_DewPoint_AGL-40m_RLatLon0.03_PT001H.grib2 2026-04-27 18:08 3.6M
20260427T12Z_MSC_CAPS_DewPoint_AGL-80m_RLatLon0.03_PT001H.grib2 2026-04-27 18:08 3.5M
20260427T12Z_MSC_CAPS_DownwardLongwaveRadiationFlux-Accum_Sfc_RLatLon0.03_PT001H.grib2 2026-04-27 18:08 2.3M
20260427T12Z_MSC_CAPS_DownwardShortwaveRadiationFlux-Accum_NTAtm_RLatLon0.03_PT001H.grib2 2026-04-27 18:08 297K
20260427T12Z_MSC_CAPS_DownwardShortwaveRadiationFlux-Accum_Sfc_RLatLon0.03_PT001H.grib2 2026-04-27 18:08 1.9M
20260427T12Z_MSC_CAPS_FreezingRain-Accum_Sfc_RLatLon0.03_PT001H.grib2 2026-04-27 18:08 160K
20260427T12Z_MSC_CAPS_GeopotentialHeight_IsbL-0050_RLatLon0.03_PT001H.grib2 2026-04-27 18:08 652K
20260427T12Z_MSC_CAPS_GeopotentialHeight_IsbL-0100_RLatLon0.03_PT001H.grib2 2026-04-27 18:08 826K
20260427T12Z_MSC_CAPS_GeopotentialHeight_IsbL-0150_RLatLon0.03_PT001H.grib2 2026-04-27 18:08 614K
20260427T12Z_MSC_CAPS_GeopotentialHeight_IsbL-0175_RLatLon0.03_PT001H.grib2 2026-04-27 18:08 723K
20260427T12Z_MSC_CAPS_GeopotentialHeight_IsbL-0200_RLatLon0.03_PT001H.grib2 2026-04-27 18:08 731K
20260427T12Z_MSC_CAPS_GeopotentialHeight_IsbL-0225_RLatLon0.03_PT001H.grib2 2026-04-27 18:08 745K
20260427T12Z_MSC_CAPS_GeopotentialHeight_IsbL-0250_RLatLon0.03_PT001H.grib2 2026-04-27 18:08 755K
20260427T12Z_MSC_CAPS_GeopotentialHeight_IsbL-0275_RLatLon0.03_PT001H.grib2 2026-04-27 18:08 767K
20260427T12Z_MSC_CAPS_GeopotentialHeight_IsbL-0300_RLatLon0.03_PT001H.grib2 2026-04-27 18:08 776K
20260427T12Z_MSC_CAPS_GeopotentialHeight_IsbL-0350_RLatLon0.03_PT001H.grib2 2026-04-27 18:08 779K
20260427T12Z_MSC_CAPS_GeopotentialHeight_IsbL-0400_RLatLon0.03_PT001H.grib2 2026-04-27 18:08 771K
20260427T12Z_MSC_CAPS_GeopotentialHeight_IsbL-0450_RLatLon0.03_PT001H.grib2 2026-04-27 18:08 765K
20260427T12Z_MSC_CAPS_GeopotentialHeight_IsbL-0500_RLatLon0.03_PT001H.grib2 2026-04-27 18:08 756K
20260427T12Z_MSC_CAPS_GeopotentialHeight_IsbL-0550_RLatLon0.03_PT001H.grib2 2026-04-27 18:08 748K
20260427T12Z_MSC_CAPS_GeopotentialHeight_IsbL-0600_RLatLon0.03_PT001H.grib2 2026-04-27 18:08 743K
20260427T12Z_MSC_CAPS_GeopotentialHeight_IsbL-0650_RLatLon0.03_PT001H.grib2 2026-04-27 18:08 629K
20260427T12Z_MSC_CAPS_GeopotentialHeight_IsbL-0700_RLatLon0.03_PT001H.grib2 2026-04-27 18:08 625K
20260427T12Z_MSC_CAPS_GeopotentialHeight_IsbL-0750_RLatLon0.03_PT001H.grib2 2026-04-27 18:08 625K
20260427T12Z_MSC_CAPS_GeopotentialHeight_IsbL-0800_RLatLon0.03_PT001H.grib2 2026-04-27 18:08 631K
20260427T12Z_MSC_CAPS_GeopotentialHeight_IsbL-0850_RLatLon0.03_PT001H.grib2 2026-04-27 18:08 823K
20260427T12Z_MSC_CAPS_GeopotentialHeight_IsbL-0875_RLatLon0.03_PT001H.grib2 2026-04-27 18:08 832K
20260427T12Z_MSC_CAPS_GeopotentialHeight_IsbL-0900_RLatLon0.03_PT001H.grib2 2026-04-27 18:08 838K
20260427T12Z_MSC_CAPS_GeopotentialHeight_IsbL-0925_RLatLon0.03_PT001H.grib2 2026-04-27 18:08 834K
20260427T12Z_MSC_CAPS_GeopotentialHeight_IsbL-0950_RLatLon0.03_PT001H.grib2 2026-04-27 18:08 862K
20260427T12Z_MSC_CAPS_GeopotentialHeight_IsbL-0970_RLatLon0.03_PT001H.grib2 2026-04-27 18:08 876K
20260427T12Z_MSC_CAPS_GeopotentialHeight_IsbL-0985_RLatLon0.03_PT001H.grib2 2026-04-27 18:08 884K
20260427T12Z_MSC_CAPS_GeopotentialHeight_IsbL-1000_RLatLon0.03_PT001H.grib2 2026-04-27 18:08 892K
20260427T12Z_MSC_CAPS_GeopotentialHeight_IsbL-1015_RLatLon0.03_PT001H.grib2 2026-04-27 18:08 901K
20260427T12Z_MSC_CAPS_GeopotentialHeight_Sfc_RLatLon0.03_PT001H.grib2 2026-04-27 18:08 1.0M
20260427T12Z_MSC_CAPS_IcePellets-Accum_Sfc_RLatLon0.03_PT001H.grib2 2026-04-27 18:08 4.0K
20260427T12Z_MSC_CAPS_LatentHeatNetFlux_Sfc_RLatLon0.03_PT001H.grib2 2026-04-27 18:08 1.7M
20260427T12Z_MSC_CAPS_LiftedIndex-MU-VT_IsbL-0500_RLatLon0.03_PT001H.grib2 2026-04-27 18:08 3.3M
20260427T12Z_MSC_CAPS_MixedLayerThickness_Sfc_RLatLon0.03_PT001H.nc 2026-04-27 18:13 17M
20260427T12Z_MSC_CAPS_NetLongwaveRadiationFlux-Accum_Sfc_RLatLon0.03_PT001H.grib2 2026-04-27 18:08 2.7M
20260427T12Z_MSC_CAPS_NetShortwaveRadiationFlux-Accum_Sfc_RLatLon0.03_PT001H.grib2 2026-04-27 18:08 2.0M
20260427T12Z_MSC_CAPS_PlanetaryBoundaryLayerHeight_Sfc_RLatLon0.03_PT001H.grib2 2026-04-27 18:08 2.5M
20260427T12Z_MSC_CAPS_Precip-Accum_Sfc_RLatLon0.03_PT001H.grib2 2026-04-27 18:08 2.1M
20260427T12Z_MSC_CAPS_PrecipRate_Sfc_RLatLon0.03_PT001H.grib2 2026-04-27 18:08 298K
20260427T12Z_MSC_CAPS_PrecipType-Instant_Sfc_RLatLon0.03_PT001H.grib2 2026-04-27 18:08 1.2M
20260427T12Z_MSC_CAPS_Pressure_MSL_RLatLon0.03_PT001H.grib2 2026-04-27 18:08 781K
20260427T12Z_MSC_CAPS_Pressure_Sfc_RLatLon0.03_PT001H.grib2 2026-04-27 18:08 1.2M
20260427T12Z_MSC_CAPS_RadiativeTemp_Sfc_RLatLon0.03_PT001H.grib2 2026-04-27 18:08 2.1M
20260427T12Z_MSC_CAPS_Rain-Accum_Sfc_RLatLon0.03_PT001H.grib2 2026-04-27 18:08 850K
20260427T12Z_MSC_CAPS_RelativeHumidity_AGL-120m_RLatLon0.03_PT001H.grib2 2026-04-27 18:08 2.6M
20260427T12Z_MSC_CAPS_RelativeHumidity_AGL-2m_RLatLon0.03_PT001H.grib2 2026-04-27 18:08 2.8M
20260427T12Z_MSC_CAPS_RelativeHumidity_AGL-40m_RLatLon0.03_PT001H.grib2 2026-04-27 18:08 2.7M
20260427T12Z_MSC_CAPS_RelativeHumidity_AGL-80m_RLatLon0.03_PT001H.grib2 2026-04-27 18:08 2.6M
20260427T12Z_MSC_CAPS_RelativeHumidity_IsbL-0050_RLatLon0.03_PT001H.grib2 2026-04-27 18:08 1.0M
20260427T12Z_MSC_CAPS_RelativeHumidity_IsbL-0100_RLatLon0.03_PT001H.grib2 2026-04-27 18:08 866K
20260427T12Z_MSC_CAPS_RelativeHumidity_IsbL-0150_RLatLon0.03_PT001H.grib2 2026-04-27 18:08 605K
20260427T12Z_MSC_CAPS_RelativeHumidity_IsbL-0175_RLatLon0.03_PT001H.grib2 2026-04-27 18:08 479K
20260427T12Z_MSC_CAPS_RelativeHumidity_IsbL-0200_RLatLon0.03_PT001H.grib2 2026-04-27 18:08 648K
20260427T12Z_MSC_CAPS_RelativeHumidity_IsbL-0225_RLatLon0.03_PT001H.grib2 2026-04-27 18:08 811K
20260427T12Z_MSC_CAPS_RelativeHumidity_IsbL-0250_RLatLon0.03_PT001H.grib2 2026-04-27 18:08 1.0M
20260427T12Z_MSC_CAPS_RelativeHumidity_IsbL-0275_RLatLon0.03_PT001H.grib2 2026-04-27 18:08 1.3M
20260427T12Z_MSC_CAPS_RelativeHumidity_IsbL-0300_RLatLon0.03_PT001H.grib2 2026-04-27 18:08 1.6M
20260427T12Z_MSC_CAPS_RelativeHumidity_IsbL-0350_RLatLon0.03_PT001H.grib2 2026-04-27 18:08 1.8M
20260427T12Z_MSC_CAPS_RelativeHumidity_IsbL-0400_RLatLon0.03_PT001H.grib2 2026-04-27 18:08 1.9M
20260427T12Z_MSC_CAPS_RelativeHumidity_IsbL-0450_RLatLon0.03_PT001H.grib2 2026-04-27 18:08 1.8M
20260427T12Z_MSC_CAPS_RelativeHumidity_IsbL-0500_RLatLon0.03_PT001H.grib2 2026-04-27 18:08 1.7M
20260427T12Z_MSC_CAPS_RelativeHumidity_IsbL-0550_RLatLon0.03_PT001H.grib2 2026-04-27 18:08 1.9M
20260427T12Z_MSC_CAPS_RelativeHumidity_IsbL-0600_RLatLon0.03_PT001H.grib2 2026-04-27 18:08 1.8M
20260427T12Z_MSC_CAPS_RelativeHumidity_IsbL-0650_RLatLon0.03_PT001H.grib2 2026-04-27 18:08 1.9M
20260427T12Z_MSC_CAPS_RelativeHumidity_IsbL-0700_RLatLon0.03_PT001H.grib2 2026-04-27 18:08 2.1M
20260427T12Z_MSC_CAPS_RelativeHumidity_IsbL-0750_RLatLon0.03_PT001H.grib2 2026-04-27 18:08 2.1M
20260427T12Z_MSC_CAPS_RelativeHumidity_IsbL-0800_RLatLon0.03_PT001H.grib2 2026-04-27 18:08 2.2M
20260427T12Z_MSC_CAPS_RelativeHumidity_IsbL-0850_RLatLon0.03_PT001H.grib2 2026-04-27 18:08 2.2M
20260427T12Z_MSC_CAPS_RelativeHumidity_IsbL-0875_RLatLon0.03_PT001H.grib2 2026-04-27 18:08 2.3M
20260427T12Z_MSC_CAPS_RelativeHumidity_IsbL-0900_RLatLon0.03_PT001H.grib2 2026-04-27 18:08 2.3M
20260427T12Z_MSC_CAPS_RelativeHumidity_IsbL-0925_RLatLon0.03_PT001H.grib2 2026-04-27 18:08 2.4M
20260427T12Z_MSC_CAPS_RelativeHumidity_IsbL-0950_RLatLon0.03_PT001H.grib2 2026-04-27 18:08 2.5M
20260427T12Z_MSC_CAPS_RelativeHumidity_IsbL-0970_RLatLon0.03_PT001H.grib2 2026-04-27 18:08 2.6M
20260427T12Z_MSC_CAPS_RelativeHumidity_IsbL-0985_RLatLon0.03_PT001H.grib2 2026-04-27 18:08 2.7M
20260427T12Z_MSC_CAPS_RelativeHumidity_IsbL-1000_RLatLon0.03_PT001H.grib2 2026-04-27 18:08 2.7M
20260427T12Z_MSC_CAPS_RelativeHumidity_IsbL-1015_RLatLon0.03_PT001H.grib2 2026-04-27 18:08 2.8M
20260427T12Z_MSC_CAPS_Runoff-Accum_Sfc_RLatLon0.03_PT001H.grib2 2026-04-27 18:08 147K
20260427T12Z_MSC_CAPS_SeaIceAreaFraction_Sfc_RLatLon0.03_PT001H.nc 2026-04-27 18:13 15M
20260427T12Z_MSC_CAPS_SeaIceCompressiveStrength_Sfc_RLatLon0.03_PT001H.nc 2026-04-27 18:13 15M
20260427T12Z_MSC_CAPS_SeaIceDivergence_Sfc_RLatLon0.03_PT001H.nc 2026-04-27 18:13 15M
20260427T12Z_MSC_CAPS_SeaIceInternalPressure_Sfc_RLatLon0.03_PT001H.nc 2026-04-27 18:13 15M
20260427T12Z_MSC_CAPS_SeaIceShear_Sfc_RLatLon0.03_PT001H.nc 2026-04-27 18:13 15M
20260427T12Z_MSC_CAPS_SeaIceSnowTemp_Sfc_RLatLon0.03_PT001H.nc 2026-04-27 18:13 15M
20260427T12Z_MSC_CAPS_SeaIceSnowVolume_Sfc_RLatLon0.03_PT001H.nc 2026-04-27 18:13 15M
20260427T12Z_MSC_CAPS_SeaIceVelocityX_Sfc_RLatLon0.03_PT001H.nc 2026-04-27 18:13 14M
20260427T12Z_MSC_CAPS_SeaIceVelocityY_Sfc_RLatLon0.03_PT001H.nc 2026-04-27 18:13 15M
20260427T12Z_MSC_CAPS_SeaIceVolume_Sfc_RLatLon0.03_PT001H.nc 2026-04-27 18:13 15M
20260427T12Z_MSC_CAPS_SeaSurfaceHeight_Sfc_RLatLon0.03_PT001H.nc 2026-04-27 18:13 16M
20260427T12Z_MSC_CAPS_SeaWaterSalinity_DBS-0.5m_RLatLon0.03_PT001H.nc 2026-04-27 18:13 16M
20260427T12Z_MSC_CAPS_SeaWaterSalinity_DBS-all_RLatLon0.03_PT001H.nc 2026-04-27 18:14 107M
20260427T12Z_MSC_CAPS_SeaWaterTemp_DBS-0.5m_RLatLon0.03_PT001H.nc 2026-04-27 18:13 14M
20260427T12Z_MSC_CAPS_SeaWaterTemp_DBS-all_RLatLon0.03_PT001H.nc 2026-04-27 18:14 87M
20260427T12Z_MSC_CAPS_SeaWaterVelocityX_DBS-0.5m_RLatLon0.03_PT001H.nc 2026-04-27 18:13 17M
20260427T12Z_MSC_CAPS_SeaWaterVelocityX_DBS-all_RLatLon0.03_PT001H.nc 2026-04-27 18:14 208M
20260427T12Z_MSC_CAPS_SeaWaterVelocityY_DBS-0.5m_RLatLon0.03_PT001H.nc 2026-04-27 18:13 17M
20260427T12Z_MSC_CAPS_SeaWaterVelocityY_DBS-all_RLatLon0.03_PT001H.nc 2026-04-27 18:14 208M
20260427T12Z_MSC_CAPS_SensibleHeatNetFlux_Sfc_RLatLon0.03_PT001H.grib2 2026-04-27 18:08 1.7M
20260427T12Z_MSC_CAPS_ShowalterIndex_IsbL-0500_RLatLon0.03_PT001H.grib2 2026-04-27 18:08 4.2M
20260427T12Z_MSC_CAPS_Snow-Accum_Sfc_RLatLon0.03_PT001H.grib2 2026-04-27 18:08 1.6M
20260427T12Z_MSC_CAPS_SnowDensity_Sfc_RLatLon0.03_PT001H.grib2 2026-04-27 18:08 1.2M
20260427T12Z_MSC_CAPS_SnowDepthWaterEquivalent_Sfc_RLatLon0.03_PT001H.grib2 2026-04-27 18:08 703K
20260427T12Z_MSC_CAPS_SnowDepth_Sfc_RLatLon0.03_PT001H.grib2 2026-04-27 18:08 1.2M
20260427T12Z_MSC_CAPS_SoilTemp_DBS-0to10cm_RLatLon0.03_PT001H.grib2 2026-04-27 18:08 1.0M
20260427T12Z_MSC_CAPS_SoilTemp_Sfc_RLatLon0.03_PT001H.grib2 2026-04-27 18:08 1.8M
20260427T12Z_MSC_CAPS_SoilVolumetricIceContent_Sfc_RLatLon0.03_PT001H.grib2 2026-04-27 18:08 1.4M
20260427T12Z_MSC_CAPS_SoilVolumetricWaterContent_DBS-0to10cm_RLatLon0.03_PT001H.grib2 2026-04-27 18:08 1.0M
20260427T12Z_MSC_CAPS_SoilVolumetricWaterContent_DBS-0to1cm_RLatLon0.03_PT001H.grib2 2026-04-27 18:08 1.6M
20260427T12Z_MSC_CAPS_SpecificHumidity_AGL-120m_RLatLon0.03_PT001H.grib2 2026-04-27 18:08 1.4M
20260427T12Z_MSC_CAPS_SpecificHumidity_AGL-2m_RLatLon0.03_PT001H.grib2 2026-04-27 18:08 2.0M
20260427T12Z_MSC_CAPS_SpecificHumidity_AGL-40m_RLatLon0.03_PT001H.grib2 2026-04-27 18:08 1.6M
20260427T12Z_MSC_CAPS_SpecificHumidity_AGL-80m_RLatLon0.03_PT001H.grib2 2026-04-27 18:08 1.5M
20260427T12Z_MSC_CAPS_SpecificHumidity_IsbL-0050_RLatLon0.03_PT001H.grib2 2026-04-27 18:08 860K
20260427T12Z_MSC_CAPS_SpecificHumidity_IsbL-0100_RLatLon0.03_PT001H.grib2 2026-04-27 18:08 1.0M
20260427T12Z_MSC_CAPS_SpecificHumidity_IsbL-0150_RLatLon0.03_PT001H.grib2 2026-04-27 18:08 963K
20260427T12Z_MSC_CAPS_SpecificHumidity_IsbL-0175_RLatLon0.03_PT001H.grib2 2026-04-27 18:08 950K
20260427T12Z_MSC_CAPS_SpecificHumidity_IsbL-0200_RLatLon0.03_PT001H.grib2 2026-04-27 18:08 944K
20260427T12Z_MSC_CAPS_SpecificHumidity_IsbL-0225_RLatLon0.03_PT001H.grib2 2026-04-27 18:08 768K
20260427T12Z_MSC_CAPS_SpecificHumidity_IsbL-0250_RLatLon0.03_PT001H.grib2 2026-04-27 18:08 1.0M
20260427T12Z_MSC_CAPS_SpecificHumidity_IsbL-0275_RLatLon0.03_PT001H.grib2 2026-04-27 18:08 1.0M
20260427T12Z_MSC_CAPS_SpecificHumidity_IsbL-0300_RLatLon0.03_PT001H.grib2 2026-04-27 18:08 961K
20260427T12Z_MSC_CAPS_SpecificHumidity_IsbL-0350_RLatLon0.03_PT001H.grib2 2026-04-27 18:08 852K
20260427T12Z_MSC_CAPS_SpecificHumidity_IsbL-0400_RLatLon0.03_PT001H.grib2 2026-04-27 18:08 1.2M
20260427T12Z_MSC_CAPS_SpecificHumidity_IsbL-0450_RLatLon0.03_PT001H.grib2 2026-04-27 18:08 1.0M
20260427T12Z_MSC_CAPS_SpecificHumidity_IsbL-0500_RLatLon0.03_PT001H.grib2 2026-04-27 18:08 1.1M
20260427T12Z_MSC_CAPS_SpecificHumidity_IsbL-0550_RLatLon0.03_PT001H.grib2 2026-04-27 18:08 1.0M
20260427T12Z_MSC_CAPS_SpecificHumidity_IsbL-0600_RLatLon0.03_PT001H.grib2 2026-04-27 18:08 1.1M
20260427T12Z_MSC_CAPS_SpecificHumidity_IsbL-0650_RLatLon0.03_PT001H.grib2 2026-04-27 18:08 1.2M
20260427T12Z_MSC_CAPS_SpecificHumidity_IsbL-0700_RLatLon0.03_PT001H.grib2 2026-04-27 18:08 1.3M
20260427T12Z_MSC_CAPS_SpecificHumidity_IsbL-0750_RLatLon0.03_PT001H.grib2 2026-04-27 18:08 1.1M
20260427T12Z_MSC_CAPS_SpecificHumidity_IsbL-0800_RLatLon0.03_PT001H.grib2 2026-04-27 18:08 1.3M
20260427T12Z_MSC_CAPS_SpecificHumidity_IsbL-0850_RLatLon0.03_PT001H.grib2 2026-04-27 18:08 1.4M
20260427T12Z_MSC_CAPS_SpecificHumidity_IsbL-0875_RLatLon0.03_PT001H.grib2 2026-04-27 18:08 1.4M
20260427T12Z_MSC_CAPS_SpecificHumidity_IsbL-0900_RLatLon0.03_PT001H.grib2 2026-04-27 18:08 1.5M
20260427T12Z_MSC_CAPS_SpecificHumidity_IsbL-0925_RLatLon0.03_PT001H.grib2 2026-04-27 18:08 1.5M
20260427T12Z_MSC_CAPS_SpecificHumidity_IsbL-0950_RLatLon0.03_PT001H.grib2 2026-04-27 18:08 1.6M
20260427T12Z_MSC_CAPS_SpecificHumidity_IsbL-0970_RLatLon0.03_PT001H.grib2 2026-04-27 18:08 1.7M
20260427T12Z_MSC_CAPS_SpecificHumidity_IsbL-0985_RLatLon0.03_PT001H.grib2 2026-04-27 18:08 1.7M
20260427T12Z_MSC_CAPS_SpecificHumidity_IsbL-1000_RLatLon0.03_PT001H.grib2 2026-04-27 18:08 1.8M
20260427T12Z_MSC_CAPS_SpecificHumidity_IsbL-1015_RLatLon0.03_PT001H.grib2 2026-04-27 18:08 1.9M
20260427T12Z_MSC_CAPS_SpecificHumidity_Sfc_RLatLon0.03_PT001H.grib2 2026-04-27 18:08 2.0M
20260427T12Z_MSC_CAPS_StormRelativeHelicity_Sfc_RLatLon0.03_PT001H.grib2 2026-04-27 18:08 3.2M
20260427T12Z_MSC_CAPS_Thickness_IsbL-1000to0500_RLatLon0.03_PT001H.grib2 2026-04-27 18:08 433K
20260427T12Z_MSC_CAPS_TotalCloudCover_Sfc_RLatLon0.03_PT001H.grib2 2026-04-27 18:08 3.2M
20260427T12Z_MSC_CAPS_TurboclineDepth_Sfc_RLatLon0.03_PT001H.nc 2026-04-27 18:13 16M
20260427T12Z_MSC_CAPS_UpwardLongwaveRadiationFlux_NTAtm_RLatLon0.03_PT001H.grib2 2026-04-27 18:08 2.6M
20260427T12Z_MSC_CAPS_UpwardShortwaveRadiationFlux_NTAtm_RLatLon0.03_PT001H.grib2 2026-04-27 18:08 2.0M
20260427T12Z_MSC_CAPS_VerticalVelocity_IsbL-0250_RLatLon0.03_PT001H.grib2 2026-04-27 18:08 1.1M
20260427T12Z_MSC_CAPS_VerticalVelocity_IsbL-0500_RLatLon0.03_PT001H.grib2 2026-04-27 18:08 1.0M
20260427T12Z_MSC_CAPS_VerticalVelocity_IsbL-0700_RLatLon0.03_PT001H.grib2 2026-04-27 18:08 1.2M
20260427T12Z_MSC_CAPS_VerticalVelocity_IsbL-0850_RLatLon0.03_PT001H.grib2 2026-04-27 18:08 1.0M
20260427T12Z_MSC_CAPS_VerticalVelocity_IsbL-1000_RLatLon0.03_PT001H.grib2 2026-04-27 18:08 1.4M
20260427T12Z_MSC_CAPS_WindDir_AGL-10m_RLatLon0.03_PT001H.grib2 2026-04-27 18:08 2.4M
20260427T12Z_MSC_CAPS_WindDir_AGL-120m_RLatLon0.03_PT001H.grib2 2026-04-27 18:08 1.2M
20260427T12Z_MSC_CAPS_WindDir_AGL-40m_RLatLon0.03_PT001H.grib2 2026-04-27 18:08 1.4M
20260427T12Z_MSC_CAPS_WindDir_AGL-80m_RLatLon0.03_PT001H.grib2 2026-04-27 18:08 1.3M
20260427T12Z_MSC_CAPS_WindDir_IsbL-0050_RLatLon0.03_PT001H.grib2 2026-04-27 18:08 1.0M
20260427T12Z_MSC_CAPS_WindDir_IsbL-0100_RLatLon0.03_PT001H.grib2 2026-04-27 18:08 961K
20260427T12Z_MSC_CAPS_WindDir_IsbL-0150_RLatLon0.03_PT001H.grib2 2026-04-27 18:08 1.0M
20260427T12Z_MSC_CAPS_WindDir_IsbL-0175_RLatLon0.03_PT001H.grib2 2026-04-27 18:08 1.0M
20260427T12Z_MSC_CAPS_WindDir_IsbL-0200_RLatLon0.03_PT001H.grib2 2026-04-27 18:08 1.1M
20260427T12Z_MSC_CAPS_WindDir_IsbL-0225_RLatLon0.03_PT001H.grib2 2026-04-27 18:08 1.1M
20260427T12Z_MSC_CAPS_WindDir_IsbL-0250_RLatLon0.03_PT001H.grib2 2026-04-27 18:08 1.1M
20260427T12Z_MSC_CAPS_WindDir_IsbL-0275_RLatLon0.03_PT001H.grib2 2026-04-27 18:08 1.1M
20260427T12Z_MSC_CAPS_WindDir_IsbL-0300_RLatLon0.03_PT001H.grib2 2026-04-27 18:08 1.1M
20260427T12Z_MSC_CAPS_WindDir_IsbL-0350_RLatLon0.03_PT001H.grib2 2026-04-27 18:08 1.1M
20260427T12Z_MSC_CAPS_WindDir_IsbL-0400_RLatLon0.03_PT001H.grib2 2026-04-27 18:08 1.2M
20260427T12Z_MSC_CAPS_WindDir_IsbL-0450_RLatLon0.03_PT001H.grib2 2026-04-27 18:08 1.2M
20260427T12Z_MSC_CAPS_WindDir_IsbL-0500_RLatLon0.03_PT001H.grib2 2026-04-27 18:08 1.2M
20260427T12Z_MSC_CAPS_WindDir_IsbL-0550_RLatLon0.03_PT001H.grib2 2026-04-27 18:08 1.2M
20260427T12Z_MSC_CAPS_WindDir_IsbL-0600_RLatLon0.03_PT001H.grib2 2026-04-27 18:08 1.3M
20260427T12Z_MSC_CAPS_WindDir_IsbL-0650_RLatLon0.03_PT001H.grib2 2026-04-27 18:08 1.4M
20260427T12Z_MSC_CAPS_WindDir_IsbL-0700_RLatLon0.03_PT001H.grib2 2026-04-27 18:08 1.5M
20260427T12Z_MSC_CAPS_WindDir_IsbL-0750_RLatLon0.03_PT001H.grib2 2026-04-27 18:08 1.6M
20260427T12Z_MSC_CAPS_WindDir_IsbL-0800_RLatLon0.03_PT001H.grib2 2026-04-27 18:08 1.6M
20260427T12Z_MSC_CAPS_WindDir_IsbL-0850_RLatLon0.03_PT001H.grib2 2026-04-27 18:08 1.7M
20260427T12Z_MSC_CAPS_WindDir_IsbL-0875_RLatLon0.03_PT001H.grib2 2026-04-27 18:08 1.8M
20260427T12Z_MSC_CAPS_WindDir_IsbL-0900_RLatLon0.03_PT001H.grib2 2026-04-27 18:08 1.9M
20260427T12Z_MSC_CAPS_WindDir_IsbL-0925_RLatLon0.03_PT001H.grib2 2026-04-27 18:08 1.9M
20260427T12Z_MSC_CAPS_WindDir_IsbL-0950_RLatLon0.03_PT001H.grib2 2026-04-27 18:08 2.0M
20260427T12Z_MSC_CAPS_WindDir_IsbL-0970_RLatLon0.03_PT001H.grib2 2026-04-27 18:08 2.1M
20260427T12Z_MSC_CAPS_WindDir_IsbL-0985_RLatLon0.03_PT001H.grib2 2026-04-27 18:08 2.2M
20260427T12Z_MSC_CAPS_WindDir_IsbL-1000_RLatLon0.03_PT001H.grib2 2026-04-27 18:08 2.3M
20260427T12Z_MSC_CAPS_WindDir_IsbL-1015_RLatLon0.03_PT001H.grib2 2026-04-27 18:08 2.4M
20260427T12Z_MSC_CAPS_WindGust-Max_AGL-10m_RLatLon0.03_PT001H.grib2 2026-04-27 18:08 2.4M
20260427T12Z_MSC_CAPS_WindGust-Min_AGL-10m_RLatLon0.03_PT001H.grib2 2026-04-27 18:08 2.3M
20260427T12Z_MSC_CAPS_WindGust_AGL-10m_RLatLon0.03_PT001H.grib2 2026-04-27 18:08 2.3M
20260427T12Z_MSC_CAPS_WindSpeed_AGL-10m_RLatLon0.03_PT001H.grib2 2026-04-27 18:08 2.1M
20260427T12Z_MSC_CAPS_WindSpeed_AGL-120m_RLatLon0.03_PT001H.grib2 2026-04-27 18:08 1.2M
20260427T12Z_MSC_CAPS_WindSpeed_AGL-40m_RLatLon0.03_PT001H.grib2 2026-04-27 18:08 1.2M
20260427T12Z_MSC_CAPS_WindSpeed_AGL-80m_RLatLon0.03_PT001H.grib2 2026-04-27 18:08 1.2M
20260427T12Z_MSC_CAPS_WindSpeed_IsbL-0050_RLatLon0.03_PT001H.grib2 2026-04-27 18:08 944K
20260427T12Z_MSC_CAPS_WindSpeed_IsbL-0100_RLatLon0.03_PT001H.grib2 2026-04-27 18:08 853K
20260427T12Z_MSC_CAPS_WindSpeed_IsbL-0150_RLatLon0.03_PT001H.grib2 2026-04-27 18:08 1.0M
20260427T12Z_MSC_CAPS_WindSpeed_IsbL-0175_RLatLon0.03_PT001H.grib2 2026-04-27 18:08 1.1M
20260427T12Z_MSC_CAPS_WindSpeed_IsbL-0200_RLatLon0.03_PT001H.grib2 2026-04-27 18:08 1.2M
20260427T12Z_MSC_CAPS_WindSpeed_IsbL-0225_RLatLon0.03_PT001H.grib2 2026-04-27 18:08 1.2M
20260427T12Z_MSC_CAPS_WindSpeed_IsbL-0250_RLatLon0.03_PT001H.grib2 2026-04-27 18:08 947K
20260427T12Z_MSC_CAPS_WindSpeed_IsbL-0275_RLatLon0.03_PT001H.grib2 2026-04-27 18:08 958K
20260427T12Z_MSC_CAPS_WindSpeed_IsbL-0300_RLatLon0.03_PT001H.grib2 2026-04-27 18:08 971K
20260427T12Z_MSC_CAPS_WindSpeed_IsbL-0350_RLatLon0.03_PT001H.grib2 2026-04-27 18:08 1.0M
20260427T12Z_MSC_CAPS_WindSpeed_IsbL-0400_RLatLon0.03_PT001H.grib2 2026-04-27 18:08 1.0M
20260427T12Z_MSC_CAPS_WindSpeed_IsbL-0450_RLatLon0.03_PT001H.grib2 2026-04-27 18:08 1.0M
20260427T12Z_MSC_CAPS_WindSpeed_IsbL-0500_RLatLon0.03_PT001H.grib2 2026-04-27 18:08 1.3M
20260427T12Z_MSC_CAPS_WindSpeed_IsbL-0550_RLatLon0.03_PT001H.grib2 2026-04-27 18:08 1.3M
20260427T12Z_MSC_CAPS_WindSpeed_IsbL-0600_RLatLon0.03_PT001H.grib2 2026-04-27 18:08 1.3M
20260427T12Z_MSC_CAPS_WindSpeed_IsbL-0650_RLatLon0.03_PT001H.grib2 2026-04-27 18:08 1.5M
20260427T12Z_MSC_CAPS_WindSpeed_IsbL-0700_RLatLon0.03_PT001H.grib2 2026-04-27 18:08 1.5M
20260427T12Z_MSC_CAPS_WindSpeed_IsbL-0750_RLatLon0.03_PT001H.grib2 2026-04-27 18:08 1.6M
20260427T12Z_MSC_CAPS_WindSpeed_IsbL-0800_RLatLon0.03_PT001H.grib2 2026-04-27 18:08 1.6M
20260427T12Z_MSC_CAPS_WindSpeed_IsbL-0850_RLatLon0.03_PT001H.grib2 2026-04-27 18:08 1.7M
20260427T12Z_MSC_CAPS_WindSpeed_IsbL-0875_RLatLon0.03_PT001H.grib2 2026-04-27 18:08 1.7M
20260427T12Z_MSC_CAPS_WindSpeed_IsbL-0900_RLatLon0.03_PT001H.grib2 2026-04-27 18:08 1.8M
20260427T12Z_MSC_CAPS_WindSpeed_IsbL-0925_RLatLon0.03_PT001H.grib2 2026-04-27 18:08 1.8M
20260427T12Z_MSC_CAPS_WindSpeed_IsbL-0950_RLatLon0.03_PT001H.grib2 2026-04-27 18:08 1.9M
20260427T12Z_MSC_CAPS_WindSpeed_IsbL-0970_RLatLon0.03_PT001H.grib2 2026-04-27 18:08 2.0M
20260427T12Z_MSC_CAPS_WindSpeed_IsbL-0985_RLatLon0.03_PT001H.grib2 2026-04-27 18:08 2.0M
20260427T12Z_MSC_CAPS_WindSpeed_IsbL-1000_RLatLon0.03_PT001H.grib2 2026-04-27 18:08 2.0M
20260427T12Z_MSC_CAPS_WindSpeed_IsbL-1015_RLatLon0.03_PT001H.grib2 2026-04-27 18:08 2.0M
20260427T12Z_MSC_CAPS_WindU_AGL-10m_RLatLon0.03_PT001H.grib2 2026-04-27 18:08 1.9M
20260427T12Z_MSC_CAPS_WindU_AGL-120m_RLatLon0.03_PT001H.grib2 2026-04-27 18:08 908K
20260427T12Z_MSC_CAPS_WindU_AGL-40m_RLatLon0.03_PT001H.grib2 2026-04-27 18:08 958K
20260427T12Z_MSC_CAPS_WindU_AGL-80m_RLatLon0.03_PT001H.grib2 2026-04-27 18:08 920K
20260427T12Z_MSC_CAPS_WindU_IsbL-0050_RLatLon0.03_PT001H.grib2 2026-04-27 18:08 781K
20260427T12Z_MSC_CAPS_WindU_IsbL-0100_RLatLon0.03_PT001H.grib2 2026-04-27 18:08 767K
20260427T12Z_MSC_CAPS_WindU_IsbL-0150_RLatLon0.03_PT001H.grib2 2026-04-27 18:08 888K
20260427T12Z_MSC_CAPS_WindU_IsbL-0175_RLatLon0.03_PT001H.grib2 2026-04-27 18:08 699K
20260427T12Z_MSC_CAPS_WindU_IsbL-0200_RLatLon0.03_PT001H.grib2 2026-04-27 18:08 845K
20260427T12Z_MSC_CAPS_WindU_IsbL-0225_RLatLon0.03_PT001H.grib2 2026-04-27 18:08 866K
20260427T12Z_MSC_CAPS_WindU_IsbL-0250_RLatLon0.03_PT001H.grib2 2026-04-27 18:08 892K
20260427T12Z_MSC_CAPS_WindU_IsbL-0275_RLatLon0.03_PT001H.grib2 2026-04-27 18:08 904K
20260427T12Z_MSC_CAPS_WindU_IsbL-0300_RLatLon0.03_PT001H.grib2 2026-04-27 18:08 710K
20260427T12Z_MSC_CAPS_WindU_IsbL-0350_RLatLon0.03_PT001H.grib2 2026-04-27 18:08 724K
20260427T12Z_MSC_CAPS_WindU_IsbL-0400_RLatLon0.03_PT001H.grib2 2026-04-27 18:08 724K
20260427T12Z_MSC_CAPS_WindU_IsbL-0450_RLatLon0.03_PT001H.grib2 2026-04-27 18:08 945K
20260427T12Z_MSC_CAPS_WindU_IsbL-0500_RLatLon0.03_PT001H.grib2 2026-04-27 18:08 961K
20260427T12Z_MSC_CAPS_WindU_IsbL-0550_RLatLon0.03_PT001H.grib2 2026-04-27 18:08 1.0M
20260427T12Z_MSC_CAPS_WindU_IsbL-0600_RLatLon0.03_PT001H.grib2 2026-04-27 18:08 1.0M
20260427T12Z_MSC_CAPS_WindU_IsbL-0650_RLatLon0.03_PT001H.grib2 2026-04-27 18:08 1.0M
20260427T12Z_MSC_CAPS_WindU_IsbL-0700_RLatLon0.03_PT001H.grib2 2026-04-27 18:08 1.1M
20260427T12Z_MSC_CAPS_WindU_IsbL-0750_RLatLon0.03_PT001H.grib2 2026-04-27 18:08 1.1M
20260427T12Z_MSC_CAPS_WindU_IsbL-0800_RLatLon0.03_PT001H.grib2 2026-04-27 18:08 1.1M
20260427T12Z_MSC_CAPS_WindU_IsbL-0850_RLatLon0.03_PT001H.grib2 2026-04-27 18:08 1.1M
20260427T12Z_MSC_CAPS_WindU_IsbL-0875_RLatLon0.03_PT001H.grib2 2026-04-27 18:08 1.2M
20260427T12Z_MSC_CAPS_WindU_IsbL-0900_RLatLon0.03_PT001H.grib2 2026-04-27 18:08 1.2M
20260427T12Z_MSC_CAPS_WindU_IsbL-0925_RLatLon0.03_PT001H.grib2 2026-04-27 18:08 1.3M
20260427T12Z_MSC_CAPS_WindU_IsbL-0950_RLatLon0.03_PT001H.grib2 2026-04-27 18:08 1.3M
20260427T12Z_MSC_CAPS_WindU_IsbL-0970_RLatLon0.03_PT001H.grib2 2026-04-27 18:08 1.4M
20260427T12Z_MSC_CAPS_WindU_IsbL-0985_RLatLon0.03_PT001H.grib2 2026-04-27 18:08 1.4M
20260427T12Z_MSC_CAPS_WindU_IsbL-1000_RLatLon0.03_PT001H.grib2 2026-04-27 18:08 1.8M
20260427T12Z_MSC_CAPS_WindU_IsbL-1015_RLatLon0.03_PT001H.grib2 2026-04-27 18:08 1.8M
20260427T12Z_MSC_CAPS_WindV_AGL-10m_RLatLon0.03_PT001H.grib2 2026-04-27 18:08 1.9M
20260427T12Z_MSC_CAPS_WindV_AGL-120m_RLatLon0.03_PT001H.grib2 2026-04-27 18:08 899K
20260427T12Z_MSC_CAPS_WindV_AGL-40m_RLatLon0.03_PT001H.grib2 2026-04-27 18:08 1.2M
20260427T12Z_MSC_CAPS_WindV_AGL-80m_RLatLon0.03_PT001H.grib2 2026-04-27 18:08 1.2M
20260427T12Z_MSC_CAPS_WindV_IsbL-0050_RLatLon0.03_PT001H.grib2 2026-04-27 18:08 958K
20260427T12Z_MSC_CAPS_WindV_IsbL-0100_RLatLon0.03_PT001H.grib2 2026-04-27 18:08 768K
20260427T12Z_MSC_CAPS_WindV_IsbL-0150_RLatLon0.03_PT001H.grib2 2026-04-27 18:08 886K
20260427T12Z_MSC_CAPS_WindV_IsbL-0175_RLatLon0.03_PT001H.grib2 2026-04-27 18:08 697K
20260427T12Z_MSC_CAPS_WindV_IsbL-0200_RLatLon0.03_PT001H.grib2 2026-04-27 18:08 843K
20260427T12Z_MSC_CAPS_WindV_IsbL-0225_RLatLon0.03_PT001H.grib2 2026-04-27 18:08 864K
20260427T12Z_MSC_CAPS_WindV_IsbL-0250_RLatLon0.03_PT001H.grib2 2026-04-27 18:08 887K
20260427T12Z_MSC_CAPS_WindV_IsbL-0275_RLatLon0.03_PT001H.grib2 2026-04-27 18:08 899K
20260427T12Z_MSC_CAPS_WindV_IsbL-0300_RLatLon0.03_PT001H.grib2 2026-04-27 18:08 913K
20260427T12Z_MSC_CAPS_WindV_IsbL-0350_RLatLon0.03_PT001H.grib2 2026-04-27 18:08 933K
20260427T12Z_MSC_CAPS_WindV_IsbL-0400_RLatLon0.03_PT001H.grib2 2026-04-27 18:08 937K
20260427T12Z_MSC_CAPS_WindV_IsbL-0450_RLatLon0.03_PT001H.grib2 2026-04-27 18:08 946K
20260427T12Z_MSC_CAPS_WindV_IsbL-0500_RLatLon0.03_PT001H.grib2 2026-04-27 18:08 958K
20260427T12Z_MSC_CAPS_WindV_IsbL-0550_RLatLon0.03_PT001H.grib2 2026-04-27 18:08 854K
20260427T12Z_MSC_CAPS_WindV_IsbL-0600_RLatLon0.03_PT001H.grib2 2026-04-27 18:08 883K
20260427T12Z_MSC_CAPS_WindV_IsbL-0650_RLatLon0.03_PT001H.grib2 2026-04-27 18:08 914K
20260427T12Z_MSC_CAPS_WindV_IsbL-0700_RLatLon0.03_PT001H.grib2 2026-04-27 18:08 958K
20260427T12Z_MSC_CAPS_WindV_IsbL-0750_RLatLon0.03_PT001H.grib2 2026-04-27 18:08 1.0M
20260427T12Z_MSC_CAPS_WindV_IsbL-0800_RLatLon0.03_PT001H.grib2 2026-04-27 18:08 1.1M
20260427T12Z_MSC_CAPS_WindV_IsbL-0850_RLatLon0.03_PT001H.grib2 2026-04-27 18:08 1.1M
20260427T12Z_MSC_CAPS_WindV_IsbL-0875_RLatLon0.03_PT001H.grib2 2026-04-27 18:08 1.2M
20260427T12Z_MSC_CAPS_WindV_IsbL-0900_RLatLon0.03_PT001H.grib2 2026-04-27 18:08 1.2M
20260427T12Z_MSC_CAPS_WindV_IsbL-0925_RLatLon0.03_PT001H.grib2 2026-04-27 18:08 1.3M
20260427T12Z_MSC_CAPS_WindV_IsbL-0950_RLatLon0.03_PT001H.grib2 2026-04-27 18:08 1.3M
20260427T12Z_MSC_CAPS_WindV_IsbL-0970_RLatLon0.03_PT001H.grib2 2026-04-27 18:08 1.4M
20260427T12Z_MSC_CAPS_WindV_IsbL-0985_RLatLon0.03_PT001H.grib2 2026-04-27 18:08 1.8M
20260427T12Z_MSC_CAPS_WindV_IsbL-1000_RLatLon0.03_PT001H.grib2 2026-04-27 18:08 1.8M
20260427T12Z_MSC_CAPS_WindV_IsbL-1015_RLatLon0.03_PT001H.grib2 2026-04-27 18:08 1.8M